This demonstration page uses our WeatherBlox Daily Observations layout. Learn more.

40.92945, -100.16068

Hourly Observations for April 16, 2017

Temp ( °F °C ) Dew Point ( °F °C ) Humidity (%) Winds ( mph kmh ) Pressure ( in mb ) Visibility ( mi km ) Precip ( " mm )
12:15 am 00:15 Clear 54 12 46 7.7 75 75 NNE 12 19 30.03 1017 10 16.0934 0 0
12:35 am 00:35 Clear 53 11.4 46 7.6 78 78 NNE 9 15 30.03 1017 10 16.0934 0 0
12:55 am 00:55 Clear 52 11.1 46 7.6 79 79 NE 3 6 30.03 1017 10 16.0934 0 0
1:15 am 01:15 Clear 51 10.6 46 7.5 81 81 NNE 7 11 30.03 1017 10 16.0934 0 0
1:35 am 01:35 Clear 51 10.5 46 7.5 82 82 NE 6 9 30.03 1017 10 16.0934 0 0
1:55 am 01:55 Clear 51 10.6 46 7.8 83 83 ENE 7 11 30.03 1017 10 16.0934 0 0
2:15 am 02:15 Clear 51 10.6 46 7.7 82 82 ENE 3 6 30.03 1017 10 16.0934 0 0
2:35 am 02:35 Partly Cloudy 51 10.5 46 7.8 84 84 NE 5 7 30.03 1017 10 16.0934 0 0
2:55 am 02:55 Partly Cloudy 51 10.4 46 7.8 84 84 ENE 13 20 30.03 1017 10 16.0934 0 0
3:15 am 03:15 Partly Cloudy 51 10.7 46 8 84 84 NE 10 17 30.03 1017 10 16.0934 0 0
3:35 am 03:35 Mostly Cloudy 52 11 47 8.1 82 82 NE 10 17 30.03 1017 10 16.0934 0 0
3:55 am 03:55 Cloudy 52 11 46 7.8 81 81 NE 9 15 30.03 1017 10 16.0934 0 0
4:15 am 04:15 Mostly Cloudy 51 10.5 46 7.6 82 82 E 5 7 30.03 1017 10 16.0934 0 0
4:35 am 04:35 Mostly Cloudy 50 10 46 7.5 85 85 E 7 11 30.06 1018 10 16.0934 0 0
4:55 am 04:55 Mostly Cloudy 51 10.5 46 7.5 82 82 Calm 30.09 1019 10 16.0934 0 0
5:15 am 05:15 Cloudy 50 9.8 46 7.5 86 86 Calm 30.09 1019 10 16.0934 0 0
5:35 am 05:35 Partly Cloudy 48 9.1 45 7.3 89 89 SE 3 6 30.09 1019 10 16.0934 0 0
5:55 am 05:55 Partly Cloudy 48 9 45 7 87 87 NNE 3 6 30.09 1019 10 16.0934 0 0
6:15 am 06:15 Cloudy 49 9.5 46 7.8 89 89 SE 6 9 30.09 1019 10 16.0934 0 0
6:35 am 06:35 Cloudy with Light Drizzle 50 9.8 45 7.3 85 85 N 3 6 30.09 1019 10 16.0934 0 0
6:55 am 06:55 Cloudy 49 9.3 46 7.5 89 89 Calm 30.12 1020 10 16.0934 0 0
7:15 am 07:15 Cloudy 48 9 46 7.6 91 91 N 6 9 30.12 1020 10 16.0934 0 0
7:35 am 07:35 Cloudy 49 9.6 46 7.8 89 89 NNW 6 9 30.12 1020 10 16.0934 0 0
7:55 am 07:55 Cloudy 49 9.7 46 7.5 86 86 N 5 7 30.12 1020 10 16.0934 0 0
8:15 am 08:15 Cloudy 50 10 45 7.3 83 83 N 6 9 30.12 1020 10 16.0934 0 0
8:35 am 08:35 Cloudy 50 10.2 46 7.7 85 85 N 5 7 30.15 1021 10 16.0934 0 0
8:55 am 08:55 Cloudy 51 10.7 46 7.7 82 82 Calm 30.15 1021 10 16.0934 0 0
9:15 am 09:15 Cloudy 53 11.5 46 7.7 78 78 N 6 9 30.12 1020 10 16.0934 0 0
9:35 am 09:35 Mostly Cloudy 54 12.1 45 7 71 71 NE 8 13 30.12 1020 10 16.0934 0 0
9:55 am 09:55 Partly Cloudy 56 13.2 43 6 62 62 ENE 8 13 30.12 1020 10 16.0934 0 0
10:15 am 10:15 Sunny 57 13.9 41 5.2 56 56 ENE 10 17 30.12 1020 10 16.0934 0 0
10:35 am 10:35 Partly Cloudy 58 14.6 39 3.7 48 48 E 13 20 30.09 1019 10 16.0934 0 0
10:55 am 10:55 Mostly Cloudy 60 15.8 38 3.5 44 44 E 13 20 30.09 1019 10 16.0934 0 0
11:15 am 11:15 Partly Cloudy 61 16 35 1.7 38 38 E 12 19 30.09 1019 10 16.0934 0 0
11:35 am 11:35 Sunny 61 16.2 32 0 33 33 ESE 8 13 30.12 1020 10 16.0934 0 0
11:55 am 11:55 Sunny 62 16.7 34 0.9 35 35 ESE 7 11 30.09 1019 10 16.0934 0 0
12:15 pm 12:15 Sunny 63 17.4 36 2.2 36 36 E 13 20 30.09 1019 10 16.0934 0 0
12:35 pm 12:35 Sunny 64 18 32 0.1 30 30 SE 10 17 30.06 1018 10 16.0934 0 0
12:55 pm 12:55 Sunny 65 18.6 35 1.4 32 32 SE 15 24 30.06 1018 10 16.0934 0 0
1:15 pm 13:15 Sunny 65 18.6 34 1.2 31 31 SE 9 15 30.06 1018 10 16.0934 0 0
1:35 pm 13:35 Sunny 65 18.6 35 1.4 32 32 ESE 7 11 30.06 1018 10 16.0934 0 0
1:55 pm 13:55 Sunny 67 19.5 37 2.5 32 32 ESE 9 15 30.03 1017 10 16.0934 0 0
2:15 pm 14:15 Sunny 67 19.5 35 1.6 30 30 ESE 14 22 30.03 1017 10 16.0934 0 0
2:35 pm 14:35 Sunny 68 19.8 35 1.6 30 30 ESE 10 17 30.03 1017 10 16.0934 0 0
2:55 pm 14:55 Sunny 68 19.8 33 0.8 28 28 SE 10 17 30.03 1017 10 16.0934 0 0
3:15 pm 15:15 Sunny 68 20 33 0.3 27 27 SE 9 15 30.03 1017 10 16.0934 0 0
3:35 pm 15:35 Sunny 68 20.2 35 1.7 29 29 SE 8 13 30.03 1017 10 16.0934 0 0
3:55 pm 15:55 Sunny 69 20.3 38 3.2 32 32 SE 12 19 30 1016 10 16.0934 0 0
4:15 pm 16:15 Sunny 69 20.6 38 3.3 32 32 SE 12 19 29.97 1015 10 16.0934 0 0
4:35 pm 16:35 Sunny 69 20.7 37 2.9 31 31 E 12 19 29.97 1015 10 16.0934 0 0
4:55 pm 16:55 Sunny 69 20.5 36 2.2 30 30 ESE 12 19 29.97 1015 10 16.0934 0 0
5:15 pm 17:15 Sunny 69 20.4 37 2.5 31 31 ESE 9 15 30 1016 10 16.0934 0 0
5:35 pm 17:35 Sunny 69 20.5 37 2.9 31 31 ESE 9 15 29.94 1014 10 16.0934 0 0
5:55 pm 17:55 Sunny 69 20.3 38 3.5 33 33 SSE 10 17 29.94 1014 10 16.0934 0 0
6:15 pm 18:15 Sunny 68 20 38 3.5 34 34 S 13 20 30 1016 10 16.0934 0 0
6:35 pm 18:35 Sunny 67 19.5 37 3 34 34 SSE 12 19 30 1016 10 16.0934 0 0
6:55 pm 18:55 Sunny 67 19.2 37 3 34 34 SSE 10 17 30 1016 10 16.0934 0 0
7:15 pm 19:15 Sunny 65 18.5 39 3.9 38 38 SSE 14 22 30 1016 10 16.0934 0 0
7:35 pm 19:35 Sunny 64 17.6 41 4.9 43 43 SSE 13 20 29.97 1015 10 16.0934 0 0
7:55 pm 19:55 Sunny 62 16.8 43 6 49 49 S 15 24 29.97 1015 10 16.0934 0 0
8:15 pm 20:15 Sunny 61 16 42 5.8 51 51 SSE 14 22 30 1016 10 16.0934 0 0
8:35 pm 20:35 Clear 60 15.4 42 5.8 53 53 S 12 19 30 1016 10 16.0934 0 0
8:55 pm 20:55 Clear 58 14.7 42 5.7 55 55 SSE 10 17 30.03 1017 10 16.0934 0 0
9:15 pm 21:15 Clear 57 14 42 5.5 57 57 S 9 15 30.03 1017 10 16.0934 0 0
9:35 pm 21:35 Clear 56 13.5 42 5.5 59 59 S 10 17 30.06 1018 10 16.0934 0 0
9:55 pm 21:55 Clear 55 12.7 42 5.5 62 62 SSE 8 13 30.06 1018 10 16.0934 0 0
10:15 pm 22:15 Clear 54 12 42 5.6 65 65 S 9 15 30.09 1019 10 16.0934 0 0
10:35 pm 22:35 Clear 53 11.7 42 5.7 67 67 S 8 13 30.09 1019 10 16.0934 0 0
10:55 pm 22:55 Clear 53 11.7 43 6 68 68 SSW 9 15 30.09 1019 10 16.0934 0 0
11:15 pm 23:15 Clear 54 12.2 42 5.8 65 65 SSW 8 13 30.09 1019 10 16.0934 0 0
11:35 pm 23:35 Clear 54 12.2 42 5.8 65 65 S 12 19 30.09 1019 10 16.0934 0 0
11:55 pm 23:55 Clear 55 12.5 43 6.1 65 65 SSW 15 24 30.09 1019 10 16.0934 0 0

Powered by AerisWeather